Home > Weather > Freiburg > Past weeks

Flag for Germany Past Weather in Freiburg, Baden-Württemberg, Germany — Yesterday and Last 2 Weeks

Now
66 °F

Overcast.


Feels Like: 66 °F
Forecast: 55 / 79 °F
Wind: 1 mph from Northeast

Location: Freiburg

Current Time: May 26, 2016 at 10:31:50 PM

Latest Report: May 26, 2016 at 10:00 PM


Visibility: 18 mi

Pressure: 29.89 "Hg

Humidity: 74%

Dew Point: 57 °F

Location of FreiburgLocation

Past Weather in Freiburg — Graph

°F

Freiburg Temperature Yesterday

Maximum temperature yesterday: 67 °F (at 4:00 PM)
Minimum temperature yesterday: 40 °F (at 6:00 AM)
Average temperature yesterday: 55 °F

High & Low Weather Summary for the Past Weeks

 TemperatureHumidityPressure
High78 °F (May 26, 6:00 PM)99% (May 17, 4:00 AM)30.23 "Hg (May 17, 4:00 AM)
Low40 °F (May 25, 6:00 AM)34% (May 21, 7:00 PM)29.47 "Hg (May 12, 6:00 PM)
Average55 °F77%29.94 "Hg
* Reported May 11 9:00 PM — May 26 9:00 PM, Freiburg, Weather by CustomWeather, © 2016

Note: Actual official high and low records may vary slightly from our data, if they occured in-between our weather recording intervals... More about our weather records

Advertising

Freiburg Weather History for the Previous 24 Hours

Scroll right to see more
 ConditionsComfort  
Time TempWeatherWind HumidityBarometerVisibility
9:00 PM
Thu, May 26
69 °FScattered clouds.2 mph60%29.88 "Hg31 mi
7:00 PM75 °FOvercast.2 mph45%29.88 "Hg40 mi
6:00 PM78 °FOvercast.2 mph44%29.89 "Hg31 mi
4:00 PM76 °FSunny.1 mph42%29.92 "Hg34 mi
3:00 PM75 °FSunny.3 mph47%29.93 "Hg19 mi
1:00 PM71 °FSunny.2 mph59%29.96 "Hg22 mi
12:00 PM69 °FSunny.3 mph61%29.97 "Hg19 mi
10:00 AM63 °FSunny.1 mph70%30.00 "Hg25 mi
9:00 AM58 °FScattered clouds.1 mph77%30.01 "Hg25 mi
7:00 AM50 °FPartly sunny.1 mph96%30.01 "Hg7 mi
6:00 AM45 °FSunny.1 mph97%30.02 "Hg12 mi
4:00 AM47 °FPassing clouds.1 mph98%30.01 "Hg14 mi
3:00 AM47 °FClear.1 mph95%30.01 "Hg16 mi
1:00 AM49 °FClear.No wind97%29.99 "Hg11 mi
12:00 AM50 °FClear.1 mph95%29.98 "Hg16 mi
10:00 PM
Wed, May 25
56 °FClear.1 mph81%29.96 "Hg22 mi
Weather by CustomWeather, © 2016

See weather overviewHow to use our weather pages